www.pogodaiklimat.ru

Погода и климат >> Архив погоды >> Норвегия >> Бодо


ПОГОДА в Бодо

  • Прогноз погоды в Бодо
  • Монитор погоды в Бодо

АРХИВ ПОГОДЫ в Бодо

Время (UTC), дата Ветер
(напр.,м/с)
 
Видим.   Явления Облачность Т
(С)
Тd
(С)
f
(%)
Тe
(С)
Тes
(С)
Комфортность P
(гПа)
Po
(гПа)
Тmin
(С)
Tmax
(С)
R
(мм)
R24
(мм)
S
(см)
10 16.09 В 5
{8}
н/о н/о +12.2 +3.5 55 +10 +10 998.1 996.6
11 16.09 В 5
{7}
н/о н/о +12.4 +3.6 55 +10 +10 998.4 996.9
12 16.09 В 4
{8}
>70 км 5/1 1000 м
[Cu hum Ac trans Ci fib]
+13.1 +4.3 55 +12 +13 998.6 997.0
13 16.09 В 3
{5}
н/о н/о +12.4 +4.1 57 +11 +11 998.7 997.2
14 16.09 С 4
{5}
н/о н/о +12.9 +3.6 53 +11 +11 998.5 997.0
15 16.09 С 3
{6}
>70 км 8/1 600 м
[Cu hum Ac trans Ci sp]
+12.3 +3.5 55 +11 +11 998.6 997.1
16 16.09 С 3
{6}
н/о н/о +11.4 +4.4 62 +10 +10 998.4 996.9
17 16.09 С 2
{4}
н/о н/о +10.7 +4.8 67 +10 +10 998.4 996.9
18 16.09 С 1
{6}
>70 км 9/1 600 м
[Cu hum Ac trans Ci sp]
+9.9 +5.1 72 +10 +10 998.4 996.8 +8.7 +13.4
19 16.09 СВ 2
{3}
н/о н/о +7.0 +4.7 85 +5 +5 998.3 996.7
20 16.09 СВ 2
{2}
н/о н/о +6.1 +3.9 86 +4 +4 998.5 996.9
21 16.09 СВ 2
{3}
>70 км 9/1 1000 м
[Cu hum Ac trans Ci sp]
+5.4 +3.6 88 +3 +3 998.6 997.0
22 16.09 СВ 3
{4}
н/о н/о +5.8 +3.3 84 +3 +3 998.7 997.1
23 16.09 СВ 3
{4}
н/о н/о +6.5 +3.8 83 +3 +3 998.8 997.2
00 17.09 В 3
{5}
>70 км 6/1 1000 м
[Cu hum Ac trans Ci fib]
+5.2 +3.2 87 +2 +2 998.9 997.3
01 17.09 В 4
{6}
н/о н/о +6.6 +3.8 82 +3 +3 999.1 997.5
02 17.09 В 5
{7}
н/о н/о +6.2 +2.8 79 +2 +2 999.2 997.6
03 17.09 В 3
{7}
>70 км 3/1 1000 м
[Cu hum Ac trans Ci fib]
+4.5 +2.2 85 +1 +1 999.4 997.8
04 17.09 В 4
{6}
н/о н/о +5.1 +2.1 81 +1 +1 999.8 998.2
05 17.09 В 4
{6}
н/о н/о +5.1 +2.1 81 +1 +1 1000.2 998.6
06 17.09 В 3
{7}
>70 км 5/1 600 м
[Cu med, cong Ac trans Ci sp]
+5.9 +1.8 75 +3 +3 1000.6 999.0 +4.4 +9.9
07 17.09 В 4
{6}
н/о н/о +6.2 +2.5 77 +3 +3 1001.1 999.5
08 17.09 В 4
{7}
н/о н/о +8.2 +3.1 70 +5 +5 1001.7 1000.1
09 17.09 В 4
{6}
>70 км 4/1 1000 м
[Cb cap Ac trans Ci sp]
+9.7 +4.5 70 +7 +8 1002.3 1000.7
10 17.09 В 4
{7}
н/о н/о +10.8 +3.6 61 +9 +9 1002.8 1001.2
11 17.09 В 3
{6}
н/о н/о +12.0 +3.8 57 +11 +11 1003.2 1001.7
12 17.09 ЮВ 2
{7}
>70 км 6/1 600 м
[Cu med, cong Ac trans Ci sp]
+11.9 +3.9 58 +11 +13 1003.6 1002.1
13 17.09 З 2
{4}
н/о н/о +12.0 +4.3 59 +11 +11 1004.1 1002.5
14 17.09 З 2
{4}
н/о н/о +11.7 +4.5 61 +11 +11 1004.4 1002.8
15 17.09 З 3
{5}
>70 км 4/1 600 м
[Cu med, cong Ci sp]
+11.3 +4.3 62 +10 +10 1004.7 1003.2
16 17.09 З 2
{4}
н/о н/о +10.8 +5.6 70 +10 +10 1005.0 1003.4
17 17.09 З 2
{3}
н/о н/о +10.0 +4.6 69 +9 +9 1005.4 1003.8
18 17.09 З 1
{5}
>70 км 4/1 600 м
[Cu med, cong Ci sp]
+7.6 +4.7 82 +7 +7 1005.7 1004.1 +5.8 +12.7
19 17.09 штиль 0
{1}
н/о н/о +6.0 +4.2 88 +5 +5 1006.1 1004.5
20 17.09 СВ 1
{1}
н/о н/о +5.4 +3.7 89 +4 +4 1006.4 1004.8
21 17.09 Ю 2
{3}
>70 км 4/1 600 м
[Cu med, cong Ac As Ci sp]
+6.8 +5.9 94 +4 +4 1006.7 1005.1
22 17.09 Ю 1
{3}
н/о н/о +6.9 +5.7 92 +6 +6 1007.0 1005.4
23 17.09 ЮЗ 4
{6}
н/о н/о +8.9 +6.0 82 +6 +6 1007.1 1005.5
00 18.09 З 5
{7}
20 км слаб. ливневой дождь 10/10 300 м
[Cu Sc]
+7.8 +4.8 81 +4 +4 1007.5 1005.9 0.1
01 18.09 СВ 1
{6}
н/о н/о +7.1 +5.3 88 +6 +6 1007.8 1006.2
02 18.09 З 1
{3}
н/о н/о +6.8 +5.6 92 +6 +6 1008.1 1006.5
03 18.09 Ю 1
{3}
30 км в посл. час ливневой дождь 10/8 300 м
[Cb calv Ac As]
+7.1 +6.1 93 +6 +6 1008.3 1006.7
04 18.09 З 1
{3}
н/о н/о +7.2 +5.8 91 +6 +6 1008.5 1006.9
05 18.09 ЮЗ 2
{2}
н/о н/о +6.9 +5.5 91 +5 +5 1008.9 1007.3
06 18.09 СВ 2
{6}
25 км слаб. ливневой дождь 9/8 200 м
[Cb calv Ac cuf]
+7.0 +5.3 89 +5 +5 1009.6 1008.0 +5.0 +9.1 5
07 18.09 Ю 2
{3}
н/о н/о +7.2 +5.7 90 +5 +5 1010.0 1008.3
08 18.09 ЮЗ 1
{3}
н/о н/о +8.7 +6.2 84 +8 +8 1010.6 1009.0
09 18.09 С 3
{5}
60 км осадки на расстоянии {ливн. осадки} 6/4 600 м
[Cu med, cong Ac cuf Ci sp]
+10.7 +5.3 69 +9 +10 1011.2 1009.6
10 18.09 С 4
{6}
н/о н/о +10.9 +3.9 62 +9 +9 1011.8 1010.2
11 18.09 СЗ 4
{7}
н/о н/о +10.4 +3.0 60 +8 +8 1012.4 1010.8
12 18.09 СЗ 5
{8}
>70 км {ливн. осадки} 5/4 600 м
[Cu hum Ac trans Ci fib]
+10.3 +3.4 62 +8 +8 1012.9 1011.3 0.2
13 18.09 СЗ 5
{10}
н/о н/о +10.0 +2.1 58 +7 +7 1013.5 1011.9
14 18.09 СЗ 6
{9}
н/о н/о +9.7 +2.3 60 +6 +6 1013.9 1012.3
15 18.09 СЗ 4
{8}
>70 км 6/5 600 м
[Cu med, cong Ac As Ci sp]
+8.6 +1.5 61 +6 +6 1014.4 1012.8
16 18.09 С 5
{9}
н/о н/о +8.4 +2.9 68 +5 +5 1014.8 1013.2
17 18.09 С 2
{8}
н/о н/о +7.1 +2.4 72 +5 +5 1015.5 1013.9
18 18.09 СЗ 3
{10}
65 км осадки на расстоянии {ливн. осадки} 9/9 600 м
[Cb cap]
+7.0 +3.6 79 +4 +4 1015.8 1014.1 +5.9 +11.3 0.2
19 18.09 С 5
{9}
н/о н/о +7.3 +2.2 70 +4 +4 1016.2 1014.6
20 18.09 С 6
{11}
н/о н/о +7.2 0.0 60 +3 +3 1016.6 1015.0
21 18.09 С 5
{10}
70 км 8/3 600 м
[Cu Sc Ac trans Ci sp]
+6.8 +0.5 64 +3 +3 1017.3 1015.7
22 18.09 С 5
{10}
н/о н/о +6.1 +1.3 71 +2 +2 1017.9 1016.2
23 18.09 СЗ 2
{6}
н/о н/о +5.7 +1.1 72 +3 +3 1018.3 1016.6
00 19.09 СЗ 4
{11}
>70 км {ливн. осадки} 6/6 600 м
[Cu Sc]
+6.6 -0.6 60 +3 +3 1018.5 1016.9 0.1
01 19.09 С 2
{9}
н/о н/о +6.4 -0.3 62 +4 +4 1018.6 1017.0
02 19.09 С 3
{7}
н/о н/о +5.6 +1.4 74 +2 +2 1018.6 1017.0
03 19.09 СЗ 4
{7}
60 км осадки на расстоянии {ливн. осадки} 8/8 100 м
[Cu Sc]
+6.2 +2.1 75 +3 +3 1018.6 1016.9
04 19.09 З 3
{7}
н/о н/о +5.9 +0.7 69 +3 +3 1018.8 1017.1
05 19.09 ЮЗ 4
{12}
н/о н/о +4.1 +2.1 87 -0 -0 1018.6 1016.9
06 19.09 З 4
{12}
60 км осадки на расстоянии {ливн. осадки} 6/6 600 м
[Cu med, cong]
+6.2 +1.4 71 +3 +3 1018.4 1016.8 +3.2 +7.5 0.8
07 19.09 З 2
{9}
н/о н/о +6.1 +0.9 69 +4 +4 1018.5 1016.9
08 19.09 З 4
{7}
н/о н/о +7.5 +0.9 63 +4 +4 1018.6 1017.0
09 19.09 З 6
{10}
45 км осадки на расстоянии {ливн. осадки} 8/8 600 м
[Cu med, cong]
+7.1 +1.8 69 +3 +3 1018.9 1017.3
10 19.09 З 4
{11}
н/о н/о +6.1 +2.8 79 +2 +2 1019.2 1017.6
11 19.09 З 5
{8}
н/о н/о +7.3 +0.8 63 +4 +4 1019.4 1017.7
12 19.09 З 5
{11}
70 км осадки на расстоянии {ливн. осадки} 5/4 600 м
[Cb cap Ac cuf Ci ing]
+8.8 +2.8 66 +6 +6 1019.4 1017.7 1
13 19.09 З 6
{11}
н/о н/о +7.5 +3.0 73 +3 +3 1019.5 1017.9
14 19.09 З 5
{10}
н/о н/о +7.6 +1.5 65 +4 +4 1019.2 1017.6
15 19.09 СЗ 4
{13}
60 км слаб. ливневой дождь 6/5 300 м
[Cb calv Ac cuf Ci fib]
+6.1 +1.8 74 +2 +3 1018.9 1017.3
16 19.09 З 3
{9}
н/о н/о +6.6 +2.7 76 +4 +4 1018.8 1017.1
17 19.09 З 7
{10}
н/о н/о +6.5 +1.8 72 +2 +2 1018.6 1016.9
18 19.09 З 5
{13}
70 км осадки на расстоянии {ливн. осадки} 6/5 600 м
[Cb cap Ac cuf Ci fib]
+7.1 +1.8 69 +3 +3 1018.4 1016.8 +4.7 +8.8 2
19 19.09 З 4
{11}
н/о н/о +6.9 +1.2 67 +4 +4 1018.3 1016.7
20 19.09 З 4
{8}
н/о н/о +7.0 +1.3 67 +4 +4 1017.9 1016.3
21 19.09 З 5
{11}
>70 км осадки на расстоянии {ливн. осадки} 6/5 600 м
[Cu Sc Ac As Ci fib]
+5.8 +1.4 73 +2 +2 1018.0 1016.4
22 19.09 З 5
{10}
н/о н/о +5.8 +2.3 78 +2 +2 1018.0 1016.4
23 19.09 ЮЗ 2
{7}
н/о н/о +4.4 +0.9 78 +2 +2 1017.2 1015.6
00 20.09 СЗ 4
{11}
50 км {морось} 9/8 600 м
[Cu Sc Ac As]
+5.9 +1.8 75 +2 +2 1016.9 1015.3 0.3
01 20.09 З 1
{5}
н/о н/о +4.9 +2.1 82 +4 +4 1016.4 1014.8
02 20.09 ЮВ 1
{4}
н/о н/о +4.7 +1.6 80 +3 +3 1016.0 1014.4
03 20.09 Ю 1
{3}
>70 км 5/4 600 м
[Cu hum Ac trans Ci fib]
+4.1 +1.5 83 +3 +3 1015.6 1014.0
04 20.09 Ю 3
{6}
н/о н/о +6.0 +3.2 82 +3 +3 1015.1 1013.4
05 20.09 В 4
{6}
н/о н/о +4.6 +3.0 89 0 0 1014.4 1012.8
06 20.09 В 4
{6}
>70 км 9/3 600 м
[Sc Ac trans Cs]
+4.5 +3.0 90 0 0 1013.8 1012.2 +4.1 +7.1 0.3
07 20.09 В 5
{6}
н/о н/о +4.9 +3.1 88 0 0 1013.5 1011.9
08 20.09 В 5
{8}
н/о н/о +5.6 +3.1 84 +1 +1 1013.0 1011.4
09 20.09 В 6
{7}
>70 км 10/1 600 м
[Sc Ac As Cs]
+6.0 +2.5 78 +1 +2 1012.7 1011.0
10 20.09 В 5
{7}
н/о н/о +6.5 +2.6 76 +2 +2 1012.6 1010.9
11 20.09 В 6
{8}
н/о н/о +6.5 +2.2 74 +2 +2 1012.1 1010.5
12 20.09 В 6
{8}
>70 км 10/1 600 м
[Sc Ac As Cs]
+6.8 +1.9 71 +3 +3 1011.4 1009.8
13 20.09 В 5
{9}
н/о н/о +8.0 +1.6 64 +5 +5 1010.9 1009.3
14 20.09 В 5
{7}
н/о н/о +8.6 +1.8 62 +5 +5 1010.3 1008.7
15 20.09 СВ 4
{7}
>70 км 9/0
[Ac As Cc]
+7.6 +1.5 65 +5 +5 1009.9 1008.2
16 20.09 СВ 3
{6}
н/о н/о +7.1 +1.2 66 +4 +4 1009.6 1008.0
17 20.09 СВ 3
{5}
н/о н/о +6.6 +0.9 67 +4 +4 1009.3 1007.7
18 20.09 СВ 2
{9}
>70 км 9/0 2000 м
[Ac trans Cs]
+5.9 +0.9 70 +4 +4 1009.3 1007.7 +4.5 +8.6
19 20.09 СВ 3
{4}
н/о н/о +5.9 +0.9 70 +3 +3 1009.1 1007.5
20 20.09 СВ 2
{4}
н/о н/о +5.2 +0.4 71 +3 +3 1009.2 1007.6
21 20.09 СВ 2
{3}
>70 км 9/0
[Ac trans]
+5.3 +1.3 75 +3 +3 1009.2 1007.6
22 20.09 В 3
{3}
н/о н/о +3.5 +0.6 81 -0 -0 1009.4 1007.8
23 20.09 В 2
{3}
н/о н/о +2.8 +0.5 85 -0 -0 1009.5 1007.9
00 21.09 СВ 2
{4}
>70 км 4/0
[Cs]
+2.0 +0.4 89 -1 -1 1010.1 1008.4
01 21.09 СВ 2
{2}
н/о н/о +0.5 -0.8 91 -3 -3 1010.3 1008.6
02 21.09 СВ 1
{2}
н/о н/о +0.2 -0.8 93 -2 -2 1010.7 1009.0
03 21.09 СВ 1
{2}
>70 км 5/1 600 м
[Cu hum Cs]
+0.1 -0.6 95 -2 -2 1011.1 1009.4
04 21.09 СВ 2
{4}
н/о н/о +0.8 0.0 94 -3 -3 1011.5 1009.9
05 21.09 В 2
{3}
н/о н/о +1.9 +1.2 95 -2 -2 1011.9 1010.3
06 21.09 СВ 2
{4}
>70 км 9/4 50 м
[Cu Sc Cs]
+2.6 +1.7 94 -1 -1 1012.5 1010.8 -0.4 +5.9
07 21.09 В 2
{3}
н/о н/о +5.2 +4.0 92 +2 +2 1012.8 1011.2
08 21.09 Ю 1
{2}
н/о н/о +5.8 +4.0 88 +5 +5 1013.5 1011.9
09 21.09 С 4
{6}
70 км осадки на расстоянии {ливн. осадки} 9/4 200 м
[Cu Sc Ac As Cs]
+5.9 +3.1 82 +2 +3 1014.2 1012.6
10 21.09 Ю 2
{3}
н/о н/о +8.2 +2.9 69 +7 +7 1014.5 1012.9
11 21.09 Ю 3
{4}
н/о н/о +9.1 +3.9 70 +7 +7 1014.9 1013.3
12 21.09 С 2
{6}
70 км осадки на расстоянии {ливн. осадки} 9/4 300 м
[Cu Sc Ac As Ci sp]
+9.1 +1.8 60 +8 +9 1015.3 1013.7 0.8
13 21.09 СЗ 4
{7}
н/о н/о +8.8 -0.2 53 +6 +6 1015.7 1014.0
14 21.09 СЗ 3
{8}
н/о н/о +8.6 +0.4 56 +6 +6 1015.9 1014.3
15 21.09 С 5
{9}
70 км осадки на расстоянии 8/5 600 м
[Cu Sc Cs]
+7.4 +0.4 61 +4 +4 1016.1 1014.4
16 21.09 С 3
{8}
н/о н/о +7.1 +0.8 64 +4 +4 1016.4 1014.8
17 21.09 С 2
{6}
н/о н/о +6.9 +1.2 67 +5 +5 1016.8 1015.1
18 21.09 С 2
{9}
65 км 8/4 300 м
[Cu Sc Cs]
+6.5 +0.4 65 +5 +5 1017.1 1015.5 +2.0 +9.8 0.8
19 21.09 В 2
{4}
н/о н/о +3.6 +0.1 78 +1 +1 1017.7 1016.0
20 21.09 СВ 2
{3}
н/о н/о +1.0 -0.4 90 -3 -3 1018.3 1016.6
21 21.09 С 3
{4}
>70 км 5/4 1000 м
[Cu Sc Cs]
+2.9 +0.6 85 -1 -1 1018.9 1017.3
22 21.09 СВ 2
{4}
н/о н/о +2.3 -0.9 79 -1 -1 1019.3 1017.6
23 21.09 СВ 2
{3}
н/о н/о +1.3 -0.6 87 -2 -2 1019.8 1018.1
00 22.09 СВ 2
{4}
>70 км 1/1 1000 м
[Cu hum]
0.0 -1.4 90 -4 -4 1020.4 1018.8
01 22.09 СВ 2
{3}
н/о н/о +0.8 -1.4 85 -3 -3 1021.0 1019.4
02 22.09 СВ 3
{4}
н/о н/о +1.5 -0.1 89 -3 -3 1021.4 1019.8
03 22.09 В 2
{4}
>70 км ясно -0.7 -2.1 90 -5 -5 1022.1 1020.4
04 22.09 СВ 2
{4}
н/о н/о +1.5 -0.1 89 -2 -2 1022.4 1020.7
05 22.09 СВ 4
{4}
н/о н/о +0.3 -0.7 93 -5 -5 1022.8 1021.1
06 22.09 В 3
{5}
>70 км 1/1 300 м
[Sc]
+1.8 +0.2 89 -3 -2 1023.3 1021.6 -1.1 +6.7
07 22.09 В 3
{4}
н/о н/о +4.1 +1.5 83 0 0 1023.9 1022.2
08 22.09 В 4
{5}
н/о н/о +5.6 +1.9 77 +2 +2 1024.1 1022.5
09 22.09 В 4
{5}
>70 км 1/1 600 м
[Sc Ci fib]
+6.9 +0.6 64 +4 +5 1024.3 1022.7
10 22.09 В 4
{5}
н/о н/о +7.5 +1.2 64 +4 +4 1024.5 1022.8
11 22.09 В 3
{5}
н/о н/о +7.9 +0.4 59 +6 +6 1024.6 1023.0
12 22.09 В 4
{5}
>70 км 3/1 1000 м
[Sc Ci fib]
+8.6 -0.4 53 +6 +8 1024.3 1022.7
13 22.09 В 4
{6}
н/о н/о +8.7 -0.3 53 +6 +6 1024.1 1022.5
14 22.09 В 5
{7}
н/о н/о +8.7 -1.1 50 +6 +6 1023.9 1022.3
15 22.09 В 4
{7}
>70 км 1/0
[]
+8.4 -0.6 53 +6 +6 1023.8 1022.2
16 22.09 СВ 3
{6}
н/о н/о +8.1 -0.6 54 +6 +6 1023.7 1022.1
17 22.09 СВ 3
{5}
н/о н/о +6.3 0.0 64 +4 +4 1023.4 1021.8
18 22.09 СВ 3
{7}
н/о н/о +4.8 -0.4 69 +2 +2 1023.6 1022.0 +1.8 +8.9
19 22.09 СВ 3
{4}
н/о н/о +4.4 -0.8 69 +1 +1 1023.7 1022.0
20 22.09 В 5
{6}
н/о н/о +4.2 +0.4 76 -1 -1 1023.4 1021.8
21 22.09 СВ 6
{8}
>70 км 1/0
[]
+4.5 +0.5 75 -1 -1 1023.4 1021.7
22 22.09 В 5
{8}
н/о н/о +4.0 0.0 75 -1 -1 1023.2 1021.5
23 22.09 В 7
{10}
н/о н/о +4.4 -0.8 69 -1 -1 1023.1 1021.5
00 23.09 В 7
{10}
>70 км 1/0
[Ci fib]
+4.3 -1.5 66 -1 -1 1022.9 1021.2
01 23.09 В 7
{10}
н/о н/о +4.2 -1.8 65 -1 -1 1022.8 1021.2
02 23.09 В 7
{10}
н/о н/о +4.1 -2.1 64 -1 -1 1022.7 1021.0
03 23.09 В 6
{9}
>70 км 1/0
[]
+3.9 -2.5 63 -1 -1 1022.3 1020.6
04 23.09 В 6
{10}
н/о н/о +3.8 -2.6 63 -1 -1 1022.1 1020.4
05 23.09 В 7
{9}
н/о н/о +4.1 -2.3 63 -1 -1 1022.2 1020.5
06 23.09 В 6
{10}
>70 км 3/0
[Ci sp]
+4.7 -2.4 60 -0 -0 1022.0 1020.3 +3.7 +4.9
07 23.09 В 7
{10}
н/о н/о +5.9 -2.2 56 +1 +1 1021.8 1020.2
08 23.09 В 7
{10}
н/о н/о +7.2 -1.7 53 +3 +3 1021.5 1019.9
09 23.09 В 7
{11}
>70 км 3/0
[Ac As Ci sp]
+8.1 -1.7 50 +4 +5 1021.5 1019.9
10 23.09 В 7
{10}
н/о н/о +9.1 -2.2 45 +6 +6 1021.3 1019.7

 

Местоположение метеостанции Бодо (Норвегия): широта 67.27 долгота 14.36 высота над уровнем моря 13 м.

В архиве по умолчанию представлена погода в Бодо за последнюю неделю. Архивные данные за месяц целиком и за предыдущие месяцы, начиная с января 2011 года, Вы можете получить, выбрав интересующий диапазон дат из раскрывающегося списка и нажав кнопку "Ввод!".


*Определитесь, кто Вы:
робот инопланетянин человек

Внимание! Время в таблицах - всемирное. Для получения местного времени необходимо прибавить поправку, которая равна 1 ч.

Смотрите также архив погоды в соседних городах и на ближайших метеорологических станциях:

Погода в Хеллигвере (Норвегия) (24 км)
Погода в Сетсе (Норвегия) (50 км)
Погода в Рейпе (Норвегия) (51 км)
Погода в Салтдале (Норвегия) (55 км)
Погода в Аэропорту Vaeroy Heliport (Норвегия) (82 км)
Погода в Хяртасене (Норвегия) (89 км)
Погода в Сторфоршее (Норвегия) (97 км)
Погода на Маяке Skrova (Норвегия) (99 км)
Погода на Мыкене (Норвегия) (99 км)
Погода в Рост аэропорту (Норвегия) (101 км)

Пояснения к столбцам:

Ветер - указаны скорость ветра в м/с - средняя за 10 мин, порывы в срок и между сроками (в фигурных скобках) и направление, откуда дует ветер: С - северный, СВ - северо-восточный, В - восточный, ЮВ - юго-восточный, Ю - южный, ЮЗ - юго-западный, З - западный, СЗ - северо-западный.
Видимость - горизонтальная дальность видимости в метрах или километрах. При видимости от 1 до 10 км при отсутствии осадков обычно наблюдается дымка, при ухудшении видимости до 1 км и менее - туман. В сухую погоду видимость может ухудшаться дымом, пылью или мглою.
Явления - указаны атмосферные явления, наблюдавшиеся в срок или в последний час перед сроком; фигурными скобками обозначены явления, наблюдавшиеся между сроками (за 1-3 часа до срока); квадратными скобками обозначены град или гололедные отложения с указанием их диаметра в мм.
Облачность - указаны через наклонную черту общая и нижняя облачность в баллах и высота нижней границы облаков в метрах; квадратными скобками обозначены формы облаков: Ci - перистые, Cs - перисто-слоистые, Cc - перисто-кучевые, Ac - высококучевые, As - высокослоистые, Sc - слоисто-кучевые, Ns - слоисто-дождевые, Cu - кучевые, Cb - кучево-дождевые. Подробнее классификацию облаков см. в Атласе облаков (PDF).
T - Температура воздуха - температура, измеренная на высоте 2 м над землей.
Td - Температура точки росы - температура, при понижении до которой содержащийся в воздухе водяной пар достигнет насыщения.
f - Относительная влажность воздуха - влажноcть воздуха, измеренная на высоте 2 м над землей.
Te - Эффективная температура - температура, которую ощущает одетый по сезону человек в тени. Характеристика душности погоды. При расчете учитывается влияние влажности воздуха и скорости ветра на теплоощущения человека.
Tes - Эффективная температура на солнце - температура, которую ощущает человек, с поправкой на солнечный нагрев. Характеристика знойности погоды. Зависит от высоты солнца над горизонтом, облачности и скорости ветра. Ночью, в пасмурную погоду, а также при ветре 12 м/с и более поправка равна нулю.
P - Атмосферное давление - приведенное к уровню моря атмосферное давление.
Po - Атмосферное давление - измеренное на уровне метеостанции атмосферное давление.
Tmin - Минимальная температура - минимум температуры воздуха на высоте 2 м над землей.
Tmax - Максимальная температура - максимум температуры воздуха на высоте 2 м над землей.
R - Количество осадков - Количество выпавших осадков за период времени, мм. При наведении курсора мыши на число - период времени, за который выпало указанное количество осадков.
R24 - Количество осадков - Количество выпавших осадков за 24 часа, мм.
S - Снежный покров - Высота снежного покрова, см. При наведении курсора мыши на число - состояние снежного покрова и степень покрытия местности в баллах.